THOR ABLESTAR DEB, 655

Orbit data source: Space-Track

THOR ABLESTAR DEB, 655 is space debris in LEO originally from a launch on Thu, 29 Jun 1961 UTC launched from the Air Force Eastern Test Range (AFETR). Debris objects in space refer to the collection of defunct objects orbiting the Earth. Examples of debris include non-operational satellites, rocket bodies, and fragments generated from explosions, collisions, or faulty payload assembly.

Loading next visibility...
Identifier
655, 1961-015HG
Orbit
LEO
Country
Flag of USUS
Related business
Manufacturer
Unknown
Mission
Spacecraft
Bus & Motor
Unknown
Mass
Unknown
Launch date (UTC)
1961-06-29 (64 years ago)
Launch vehicle
Unknown
Launch site
Air Force Eastern Test Range (AFETR)
Object type
Payload
Rocket body
Debris
Shape & HBR
Unknown shape, 0.1 m
Radar Cross Section
Small (<0.1 m²)

Expand to show TLE details & history
Last TLE update: 16 hours ago

TLE from 16 hours ago
0 THOR ABLESTAR DEB
1 00655U 61015HG  25292.63609708 -.00000060  00000-0 -32106-5 0  9993
2 00655  67.2582  23.0484 0363090 126.3464  16.3744 13.09353731 55433
Epoch: 2025-10-19T15:15Z
TLE epoch observation values (Epoch: 2025-10-19T15:15:58.787Z)
Latitude
32.95037°
Longitude
-69.97673°
Altitude
964.999 km
Speed
7.499 km/s
True Right ascension
12h 29m 28s
True Declination
32° 47' 53"
Sunlit
Object was in daylight at epoch
Visualization orbit readout
Latitude
Unknown
Longitude
Unknown
Altitude
Unknown
Speed
Unknown
Apparent Right ascension
Unknown
Apparent Declination
Unknown
Sunlit
N/A
Visualization observer readout
Local Sidereal Time
01:48:26
Azimuth
Unknown
Elevation
Unknown
Doppler factor
Unknown
Orbital elements
Apogee altitude
1,500.092 km
Perigee altitude
948.036 km
Semi-major axis
7,602.201 km
Eccentricity
0.03631
Inclination
67.2582°
RAAN
23.0484°
Arg. of periapsis
126.3464°
True anomaly
17.60056°
Mean anomaly
16.3744°
Eccentric anomaly
16.98201°
Mean motion
3.27442 °/min
Orbital period
109.94 mins
BSTAR
-0.0000032106

Documentation

Showing up to 5 results
|